TimeCST,TemperatureF,Dew PointF,Humidity,Sea Level PressureIn,VisibilityMPH,Wind Direction,Wind SpeedMPH,Gust SpeedMPH,PrecipitationIn,Events,Conditions,WindDirDegrees,DateUTC
1:53 AM,30.0,25.0,82,30.07,10.0,ENE,6.9,-,N/A,,Overcast,70,2013-03-05 07:53:00
2:53 AM,30.9,25.0,79,30.05,10.0,East,6.9,-,N/A,,Overcast,80,2013-03-05 08:53:00
3:53 AM,30.9,21.9,69,30.04,10.0,East,9.2,-,N/A,,Overcast,80,2013-03-05 09:53:00
4:53 AM,30.0,21.0,69,30.03,10.0,East,10.4,-,N/A,,Overcast,80,2013-03-05 10:53:00
7:53 AM,28.9,19.9,69,30.01,10.0,ESE,15.0,-,N/A,,Overcast,110,2013-03-05 13:53:00
8:53 AM,28.9,21.0,72,30.02,10.0,East,13.8,19.6,N/A,,Overcast,100,2013-03-05 14:53:00
9:53 AM,28.9,21.9,75,30.03,10.0,ESE,8.1,-,N/A,,Overcast,120,2013-03-05 15:53:00
10:53 AM,30.0,19.9,66,30.01,10.0,East,8.1,-,N/A,,Overcast,80,2013-03-05 16:53:00
11:53 AM,28.9,21.9,75,29.99,10.0,NE,13.8,-,N/A,,Overcast,50,2013-03-05 17:53:00
12:53 PM,28.9,21.9,75,29.96,10.0,NE,18.4,-,N/A,,Overcast,40,2013-03-05 18:53:00
1:53 PM,30.0,21.9,72,29.95,10.0,NE,16.1,-,N/A,,Overcast,40,2013-03-05 19:53:00
2:53 PM,28.9,23.0,78,29.95,10.0,NNE,17.3,-,N/A,,Overcast,20,2013-03-05 20:53:00
3:07 PM,28.4,23.0,80,29.92,10.0,NNE,18.4,-,N/A,,Overcast,30,2013-03-05 21:07:00
3:20 PM,30.2,23.0,75,29.93,10.0,NNE,13.8,-,N/A,,Overcast,30,2013-03-05 21:20:00
3:27 PM,30.2,24.8,80,29.92,10.0,NNE,16.1,20.7,N/A,,Overcast,20,2013-03-05 21:27:00
3:53 PM,28.9,23.0,78,29.96,10.0,NNE,13.8,26.5,N/A,,Overcast,20,2013-03-05 21:53:00
4:53 PM,28.0,23.0,81,29.98,10.0,North,10.4,19.6,N/A,,Overcast,10,2013-03-05 22:53:00
5:14 PM,28.4,23.0,80,29.96,10.0,North,15.0,24.2,N/A,,Overcast,360,2013-03-05 23:14:00
5:53 PM,27.0,23.0,85,30.00,10.0,North,12.7,24.2,N/A,,Overcast,10,2013-03-05 23:53:00
6:25 PM,26.6,21.2,80,29.98,10.0,North,13.8,20.7,N/A,,Overcast,10,2013-03-06 00:25:00
6:53 PM,27.0,21.9,81,30.02,10.0,North,11.5,-,N/A,,Overcast,10,2013-03-06 00:53:00
7:37 PM,28.4,23.0,80,29.99,10.0,North,10.4,-,N/A,,Overcast,360,2013-03-06 01:37:00
7:53 PM,28.0,21.9,78,30.02,10.0,North,12.7,19.6,N/A,,Overcast,350,2013-03-06 01:53:00
8:53 PM,28.0,21.9,78,30.03,10.0,North,15.0,24.2,N/A,,Overcast,360,2013-03-06 02:53:00
9:53 PM,28.0,21.9,78,30.05,10.0,North,11.5,19.6,N/A,,Overcast,360,2013-03-06 03:53:00
10:53 PM,27.0,21.9,81,30.06,10.0,North,12.7,-,N/A,,Overcast,10,2013-03-06 04:53:00
11:53 PM,26.1,21.0,81,30.07,10.0,North,11.5,19.6,N/A,,Overcast,350,2013-03-06 05:53:00